SP4FDH-13 Weather Reports


Display with metric or nautical units.
time (UTC)temp
F
wind
direction
speed
MPH
gust
MPH
rain 1hr
in
rain 24hr
in
rain mn
in
humidity
%
barometer
mb
20260507024254 56 0.0 0.0 0.00 0.00 0.00 10 1007.1
20260507023318 56 0.0 0.0 0.00 0.00 0.00 10 1006.5
20260507022342 56 0.0 0.0 0.00 0.00 0.00 10 1007.1
20260507021406 57 0.0 0.0 0.00 0.00 0.00 10 1007.5
20260507020430 58 0.0 0.0 0.00 0.00 0.00 10 1006.7
20260507015454 58 0.0 0.0 0.00 0.00 0.00 10 1006.3
20260507014517 58 0.0 0.0 0.00 0.00 0.00 10 1006.2
20260507013541 58 0.0 0.0 0.00 0.00 0.00 10 1005.9
20260507012604 58 0.0 0.0 0.00 0.00 0.00 10 1006.0
20260507011628 58 0.0 0.0 0.00 0.00 0.00 10 1005.9
20260507010652 59 0.0 0.0 0.00 0.00 0.00 10 1005.7
20260507005715 59 0.0 0.0 0.00 0.00 0.00 10 1005.6
20260507004738 59 0.0 0.0 0.00 0.00 0.00 10 1005.5
20260507003802 59 0.0 0.0 0.00 0.00 0.00 10 1005.5
20260507002826 59 0.0 0.0 0.00 0.00 0.00 10 1005.5
20260507001849 59 0.0 0.0 0.00 0.00 0.00 10 1005.3
20260507000913 59 0.0 0.0 0.00 0.00 0.00 10 1005.4
20260506235937 59 0.0 0.0 0.00 0.00 0.00 10 1005.3
20260506235001 59 0.0 0.0 0.00 0.00 0.00 10 1005.3
20260506234024 59 0.0 0.0 0.00 0.00 0.00 10 1005.4
20260506233048 59 0.0 0.0 0.00 0.00 0.00 10 1005.3
20260506232111 58 0.0 0.0 0.00 0.00 0.00 10 1005.6
20260506231134 58 0.0 0.0 0.00 0.00 0.00 10 1005.7
20260506230158 58 0.0 0.0 0.00 0.00 0.00 10 1005.5
20260506225222 58 0.0 0.0 0.00 0.00 0.00 10 1005.5
20260506224246 57 0.0 0.0 0.00 0.00 0.00 10 1005.5
20260506223310 58 0.0 0.0 0.00 0.00 0.00 10 1005.3
20260506222334 58 0.0 0.0 0.00 0.00 0.00 10 1005.3
20260506221358 59 0.0 0.0 0.00 0.00 0.00 10 1005.2
20260506220422 59 0.0 0.0 0.00 0.00 0.00 10 1005.3
20260506215445 59 0.0 0.0 0.00 0.00 0.00 10 1005.3
20260506214510 59 0.0 0.0 0.00 0.00 0.00 10 1005.2
20260506213534 60 0.0 0.0 0.00 0.00 0.00 10 1005.3
20260506212558 60 0.0 0.0 0.00 0.00 0.00 10 1005.3
20260506211622 60 0.0 0.0 0.00 0.00 0.00 10 1005.2
20260506210647 60 0.0 0.0 0.00 0.00 0.00 10 1005.2
20260506205713 61 0.0 0.0 0.00 0.00 0.00 10 1005.2
20260506204734 60 0.0 0.0 0.00 0.00 0.00 10 1004.4
20260506203758 61 0.0 0.0 0.00 0.00 0.00 10 1004.9
20260506202822 61 0.0 0.0 0.00 0.00 0.00 10 1005.0
20260506201846 62 0.0 0.0 0.00 0.00 0.00 10 1004.8
20260506200911 64 0.0 0.0 0.00 0.00 0.00 10 1004.6
20260506195936 65 0.0 0.0 0.00 0.00 0.00 10 1004.7
20260506195000 66 0.0 0.0 0.00 0.00 0.00 10 1004.8
20260506194024 66 0.0 0.0 0.00 0.00 0.00 10 1004.8
20260506193049 67 0.0 0.0 0.00 0.00 0.00 10 1004.8
20260506192113 67 0.0 0.0 0.00 0.00 0.00 10 1004.9
20260506191138 68 0.0 0.0 0.00 0.00 0.00 98 1004.8
20260506190202 68 0.0 0.0 0.00 0.00 0.00 92 1004.7
20260506185227 69 0.0 0.0 0.00 0.00 0.00 86 1004.5
20260506184251 70 0.0 0.0 0.00 0.00 0.00 77 1004.5
20260506183317 71 0.0 0.0 0.00 0.00 0.00 72 1004.2
20260506182341 71 0.0 0.0 0.00 0.00 0.00 69 1004.0
20260506181405 72 0.0 0.0 0.00 0.00 0.00 65 1003.9
20260506180430 73 0.0 0.0 0.00 0.00 0.00 65 1003.8
20260506175455 73 0.0 0.0 0.00 0.00 0.00 62 1003.7
20260506174520 74 0.0 0.0 0.00 0.00 0.00 60 1003.7
20260506173544 75 0.0 0.0 0.00 0.00 0.00 59 1003.6
20260506172608 75 0.0 0.0 0.00 0.00 0.00 57 1003.5
20260506171633 75 0.0 0.0 0.00 0.00 0.00 56 1003.4
20260506170658 76 0.0 0.0 0.00 0.00 0.00 56 1003.3
20260506165722 76 0.0 0.0 0.00 0.00 0.00 56 1003.3
20260506164747 77 0.0 0.0 0.00 0.00 0.00 56 1003.2
20260506163812 78 0.0 0.0 0.00 0.00 0.00 57 1003.0
20260506162836 78 0.0 0.0 0.00 0.00 0.00 59 1003.0
20260506161900 78 0.0 0.0 0.00 0.00 0.00 57 1002.9
20260506160925 79 0.0 0.0 0.00 0.00 0.00 57 1002.9
20260506155949 79 0.0 0.0 0.00 0.00 0.00 57 1002.9
20260506155013 78 0.0 0.0 0.00 0.00 0.00 58 1002.9
20260506154037 78 0.0 0.0 0.00 0.00 0.00 61 1003.0
20260506153102 77 0.0 0.0 0.00 0.00 0.00 67 1003.1
20260506152126 77 0.0 0.0 0.00 0.00 0.00 67 1003.2
20260506151151 77 0.0 0.0 0.00 0.00 0.00 66 1003.1
20260506150215 77 0.0 0.0 0.00 0.00 0.00 64 1003.0
20260506145239 78 0.0 0.0 0.00 0.00 0.00 67 1003.0
20260506144303 78 0.0 0.0 0.00 0.00 0.00 65 1002.9
20260506143327 78 0.0 0.0 0.00 0.00 0.00 63 1002.9
20260506142351 77 0.0 0.0 0.00 0.00 0.00 62 1002.8
20260506141415 77 0.0 0.0 0.00 0.00 0.00 62 1002.8
20260506140439 77 0.0 0.0 0.00 0.00 0.00 63 1002.8
20260506135503 77 0.0 0.0 0.00 0.00 0.00 61 1002.8
20260506134527 78 0.0 0.0 0.00 0.00 0.00 61 1002.7
20260506133550 78 0.0 0.0 0.00 0.00 0.00 64 1002.8
20260506132613 77 0.0 0.0 0.00 0.00 0.00 62 1003.0
20260506131638 77 0.0 0.0 0.00 0.00 0.00 60 1002.9
20260506130702 78 0.0 0.0 0.00 0.00 0.00 60 1002.9
20260506125726 78 0.0 0.0 0.00 0.00 0.00 59 1003.0
20260506124748 78 0.0 0.0 0.00 0.00 0.00 63 1003.2
20260506123810 77 0.0 0.0 0.00 0.00 0.00 68 1003.3
20260506122834 75 0.0 0.0 0.00 0.00 0.00 69 1003.5
20260506121858 76 0.0 0.0 0.00 0.00 0.00 68 1003.5
20260506120921 76 0.0 0.0 0.00 0.00 0.00 69 1003.6
20260506115945 75 0.0 0.0 0.00 0.00 0.00 70 1003.5
20260506115007 74 0.0 0.0 0.00 0.00 0.00 71 1003.6
20260506114031 74 0.0 0.0 0.00 0.00 0.00 70 1003.6
20260506113055 74 0.0 0.0 0.00 0.00 0.00 70 1003.7
20260506112118 74 0.0 0.0 0.00 0.00 0.00 71 1003.6
20260506111142 74 0.0 0.0 0.00 0.00 0.00 72 1003.7
20260506110206 74 0.0 0.0 0.00 0.00 0.00 72 1003.7
20260506105230 74 0.0 0.0 0.00 0.00 0.00 73 1004.0
20260506104253 74 0.0 0.0 0.00 0.00 0.00 73 1004.2
20260506103318 75 0.0 0.0 0.00 0.00 0.00 69 1004.1
20260506102344 74 0.0 0.0 0.00 0.00 0.00 70 1004.2
20260506101409 74 0.0 0.0 0.00 0.00 0.00 68 1004.3
20260506100434 74 0.0 0.0 0.00 0.00 0.00 72 1004.3
20260506095456 73 0.0 0.0 0.00 0.00 0.00 74 1004.3
20260506094519 73 0.0 0.0 0.00 0.00 0.00 74 1004.3
20260506093542 72 0.0 0.0 0.00 0.00 0.00 77 1004.3
20260506092604 71 0.0 0.0 0.00 0.00 0.00 82 1004.2
20260506091628 71 0.0 0.0 0.00 0.00 0.00 81 1004.6
20260506090649 69 0.0 0.0 0.00 0.00 0.00 87 1004.9
20260506085713 69 0.0 0.0 0.00 0.00 0.00 84 1004.8
20260506084735 68 0.0 0.0 0.00 0.00 0.00 89 1004.9
20260506083758 68 0.0 0.0 0.00 0.00 0.00 89 1005.0
20260506082821 68 0.0 0.0 0.00 0.00 0.00 90 1005.0
20260506081846 68 0.0 0.0 0.00 0.00 0.00 88 1005.2
20260506080909 68 0.0 0.0 0.00 0.00 0.00 89 1005.2
20260506073043 66 0.0 0.0 0.00 0.00 0.00 93 1005.3
20260506071129 65 0.0 0.0 0.00 0.00 0.00 10 1005.5
20260506070151 63 0.0 0.0 0.00 0.00 0.00 10 1005.8
20260506062332 67 0.0 0.0 0.00 0.00 0.00 89 1005.8
20260506060417 64 0.0 0.0 0.00 0.00 0.00 98 1006.1
20260506050633 60 0.0 0.0 0.00 0.00 0.00 10 1006.7
20260506044717 58 0.0 0.0 0.00 0.00 0.00 10 1006.9
20260506043740 57 0.0 0.0 0.00 0.00 0.00 10 1007.2
20260506042803 57 0.0 0.0 0.00 0.00 0.00 10 1007.4
20260506041826 56 0.0 0.0 0.00 0.00 0.00 10 1007.4
20260506040850 56 0.0 0.0 0.00 0.00 0.00 10 1007.5
20260506035914 55 0.0 0.0 0.00 0.00 0.00 10 1007.6
20260506034937 55 0.0 0.0 0.00 0.00 0.00 10 1007.7
20260506034001 54 0.0 0.0 0.00 0.00 0.00 10 1007.7
20260506033025 54 0.0 0.0 0.00 0.00 0.00 10 1007.9
20260506032048 54 0.0 0.0 0.00 0.00 0.00 10 1007.8
20260506031111 54 0.0 0.0 0.00 0.00 0.00 10 1007.7
20260506030135 54 0.0 0.0 0.00 0.00 0.00 10 1007.7
20260506025159 54 0.0 0.0 0.00 0.00 0.00 10 1007.6